Windsor, CA

4:46 PM PST on January 17, 2017 (GMT -0800)
Sonoma County

Weather History for KSTS - March, 2015

Change the Weather History Date:

Monday, March 16, 2015

  Actual Average Record
Temperature  
Mean Temperature 59 °F 53 °F  
Max Temperature 66 °F 64 °F 82 °F (2007)
Min Temperature 52 °F 42 °F 37 °F (1999)
Degree Days  
Heating Degree Days 6    
Month to date heating degree days 134  
Since 1 July heating degree days 1590  
Cooling Degree Days 0    
Month to date cooling degree days 1  
Year to date cooling degree days 1  
Growing Degree Days 10 (Base 50)    
Moisture  
Dew Point 52 °F    
Average Humidity 78    
Maximum Humidity 93    
Minimum Humidity 63    
Precipitation  
Precipitation T in 0.13 in 1.17 in (2012)
Month to date precipitation 0.02 3.06  
Year to date precipitation 4.34 16.51  
Sea Level Pressure  
Sea Level Pressure 30.01 in    
Wind  
Wind Speed 2 mph (SSE)    
Max Wind Speed 7 mph    
Max Gust Speed 9 mph    
Visibility 10 miles    
Events      
T = Trace of Precipitation, MM = Missing Value Source: NWS Daily Summary

Daily Weather History Graph

Daily Weather History Graph

Search for Another Location

Airport or City:

Trip Planner

Search our weather history database for the weather conditions in past years. The results will help you decide how hot, cold, wet, or windy it might be!

Date:

Astronomy

Mar. 16, 2015 Rise Set
Actual Time 7:21 AM PDT 7:19 PM PDT
Civil Twilight 6:54 AM PDT 7:45 PM PDT
Nautical Twilight 6:23 AM PDT 8:16 PM PDT
Astronomical Twilight 5:52 AM PDT 8:47 PM PDT
Moon 4:35 AM PDT (3/16) 3:23 PM PDT (3/16)
Length of Visible Light 12h 50m
Length of Day
11h 58m
Waning Crescent, 18% of the Moon is Illuminated
Mar 16
Waning Crescent
Mar 20
New
Mar 27
First Quarter
Apr 4
Full
Apr 11
Last Quarter

Hourly Weather History & Observations

Time (PDT) Temp. Dew Point Humidity Pressure Visibility Wind Dir Wind Speed Gust Speed Precip Events Conditions
12:53 AM 55.9 °F 51.1 °F 84% 30.01 in 10.0 mi Calm Calm - N/A   Clear
1:53 AM 55.9 °F 51.1 °F 84% 30.01 in 10.0 mi Calm Calm - N/A   Clear
2:53 AM 54.0 °F 51.1 °F 90% 30.00 in 10.0 mi Calm Calm - N/A   Clear
3:53 AM 55.0 °F 51.1 °F 86% 30.00 in 10.0 mi Calm Calm - N/A   Clear
4:53 AM 54.0 °F 51.1 °F 90% 29.99 in 10.0 mi Calm Calm - N/A   Clear
5:53 AM 54.0 °F 51.1 °F 90% 29.99 in 10.0 mi Calm Calm - N/A   Clear
6:53 AM 54.0 °F 51.1 °F 90% 30.01 in 10.0 mi Calm Calm - N/A   Mostly Cloudy
7:53 AM 54.0 °F 51.1 °F 90% 30.01 in 10.0 mi Calm Calm - N/A   Overcast
8:53 AM 57.0 °F 53.1 °F 87% 30.02 in 10.0 mi Calm Calm - N/A   Mostly Cloudy
9:53 AM 59.0 °F 53.1 °F 81% 30.03 in 10.0 mi Calm Calm - N/A   Mostly Cloudy
10:53 AM 62.1 °F 53.1 °F 72% 30.03 in 10.0 mi Calm Calm - N/A   Mostly Cloudy
11:53 AM 64.0 °F 53.1 °F 67% 30.02 in 10.0 mi Calm Calm - N/A   Mostly Cloudy
12:53 PM 64.0 °F 51.1 °F 63% 30.03 in 10.0 mi Calm Calm - N/A   Overcast
1:53 PM 66.0 °F 53.1 °F 63% 30.02 in 10.0 mi SSE 3.5 mph - N/A   Overcast
2:53 PM 66.0 °F 54.0 °F 65% 30.00 in 10.0 mi SE 5.8 mph - 0.00 in   Overcast
3:53 PM 66.0 °F 54.0 °F 65% 30.00 in 10.0 mi SE 6.9 mph - N/A   Overcast
4:53 PM 64.9 °F 53.1 °F 65% 29.99 in 10.0 mi SSE 4.6 mph - N/A   Overcast
5:53 PM 64.9 °F 53.1 °F 65% 29.98 in 10.0 mi SSE 3.5 mph - N/A   Overcast
6:53 PM 63.0 °F 54.0 °F 72% 29.98 in 10.0 mi SSE 4.6 mph - N/A   Clear
7:53 PM 61.0 °F 53.1 °F 75% 29.99 in 10.0 mi SSE 4.6 mph - N/A   Overcast
8:53 PM 59.0 °F 53.1 °F 81% 30.00 in 10.0 mi South 4.6 mph - N/A   Clear
9:53 PM 55.9 °F 52.0 °F 87% 30.00 in 10.0 mi South 3.5 mph - N/A   Clear
10:53 PM 55.0 °F 52.0 °F 89% 30.02 in 10.0 mi SE 4.6 mph - N/A   Clear
11:53 PM 54.0 °F 51.1 °F 90% 30.02 in 10.0 mi South 3.5 mph - N/A   Clear